Location: Sherrills_Ford_Terrell
(35.6000°N, 80.9830°W)
Time: 12:32:01
(UTC-05:00)

ISS - Visible Passes

Search period start: 22 February 2017 00:00
Search period end: 04 March 2017 00:00
Orbit: 399 x 408 km, 51.6° (Epoch: 23 February)

Date Brightness Start Highest point End Pass type
(mag) Time Alt. Az. Time Alt. Az. Time Alt. Az.
27 Feb -0.5 06:12:49 10° S 06:15:17 20° SE 06:17:46 10° E visible
01 Mar -2.6 06:03:12 10° SSW 06:06:24 54° SE 06:09:38 10° ENE visible
02 Mar -1.2 05:12:38 19° SSE 05:13:56 25° SE 05:16:42 10° ENE visible
03 Mar 0.2 04:22:50 10° ESE 04:22:50 10° ESE 04:22:52 10° ESE visible
03 Mar -3.1 05:55:30 19° WSW 05:57:38 52° NW 06:00:52 10° NE visible
